Погода в Тазбичах

Россия / Чеченская Республика     42°43′11″N   45°35′17″E
темп.,
°C
ветер,
м/с
пор.,
м/с
влажн.,
%
обл.,
%
осадки,
мм/ч
давл.,
гПа
погр.,
м
28 июня, вт
вт2800:00+11ююз219188 1.0 101416
03:00+10юз228594 1.1 101319
06:00+13з11810 0.0 101240
09:00+17ссв317219 0.2 1011651
12:00+18ссв328034 1.3 1011689
15:00+16св228769 3.7 1012446
18:00+15св119114 6.5 1013120
21:00+12юз119491 6.6 101511
29 июня, ср
ср2900:00+12ююз119751 0.3 101637
03:00+10ююз22920 0.3 101518
06:00+12юз118845 0.0 101558
09:00+17ссв326549 0.3 1014893
12:00+18ссв326197 0.9 10141245
15:00+16с2275100 2.9 1015614
18:00+15ю1182100 0.4 1015150
21:00+12юз2286100 0.5 101734
30 июня, чт
чт3000:00+11ююз2290100 0.1 101617
03:00+10ююз22881 0.1 101625
06:00+13юз11800 0.0 101553
09:00+17ссв326340 0.1 1014912
12:00+18ссв327170 0.7 1013933
15:00+16ссв228679 2.9 1013569
18:00+14ссв129195 0.8 1015137
21:00+12всв009486 1.0 101637
1 июля, пт
пт100:00+11ююз118854 0.1 101515
03:00+11ююз118635 0.1 101412
06:00+13ссв118534 0.0 101473
09:00+15ссв227571 0.6 1013752
12:00+13ссв2395100 1.1 1014356
15:00+11ссв1197100 2.5 1016175
18:00+10ю0198100 1.2 101791
21:00+10ююз1195100 1.6 101830
2 июля, сб
сб200:00+10ю1192100 0.2 101715
03:00+9ю1193100 1.8 101725
06:00+9ююз1195100 0.6 101840
09:00+10св1191100 0.9 1018247
12:00+11ссв1185100 0.3 1019366
15:00+10ююз1183100 1.0 1020253
18:00+11ююз0079100 0.4 1019194
21:00+9юз218397 0.4 102015